Showing default

GEESAT 4-09, 65127

Orbit data source: Space-Track

GEESAT 4-09, 65127 is a payload satellite owned by GeeSpace (CN) in LEO that was launched on Fri, 08 Aug 2025 UTC via a JIELONG-3 launch vehicle from the Yellow Sea Launch Area, China (YSLA). Payload-class satellites include a variety of spacecraft equipped with specific instruments for various scientific and technological missions. These include communications satellites like Starlink; space stations such as the ISS; scientific satellites like the Hubble; Earth observation satellites from companies like Planet Labs, Umbra, and HawkEye 360; GPS; miniature CubeSats for education and research; and military/defense satellites.

Loading next visibility...
Identifier
65127, 2025-170J
Orbit
LEO
Country
Flag of CNCN / PRC
Related business
Manufacturer
GWCG
Mission
Operational Commercial Navigation
Bus & Motor
GPS100, Unknown motor
Mass
130 kg wet, 130 kg dry
Launch date (UTC)
2025-08-08 (6 months ago)
Launch vehicle
JIELONG-3
Launch site
Yellow Sea Launch Area, China (YSLA)
Object type
Payload
Rocket body
Debris
Shape & HBR
Box + 2 Pan, 14.5 m
Radar Cross Section
0.833 m², Medium (>0.1 m² and < 1m²)

Expand to show TLE details & history
Last TLE update: 5 days ago

TLE from 5 days ago
0 GEESAT 4-09
1 65127U 25170J   26030.69625674  .00001191  00000-0  24054-3 0  9992
2 65127  49.9943 118.4430 0025935 244.3084 115.5169 14.67830623 25635
Epoch: 2026-01-30T16:42Z
TLE epoch observation values (Epoch: 2026-01-30T16:42:36.582Z)
Latitude
-0.00001°
Longitude
97.85967°
Altitude
676.452 km
Speed
7.516 km/s
True Right ascension
07h 53m 46s
True Declination
0° 00' 00"
Sunlit
Object was in full shadow at epoch
Visualization orbit readout
Latitude
Unknown
Longitude
Unknown
Altitude
Unknown
Speed
Unknown
Apparent Right ascension
Unknown
Apparent Declination
Unknown
Sunlit
N/A
Visualization observer readout
Local Sidereal Time
10:22:42
Azimuth
Unknown
Elevation
Unknown
Doppler factor
Unknown
Orbital elements
Apogee altitude
687.032 km
Perigee altitude
650.48 km
Semi-major axis
7,046.893 km
Eccentricity
0.00259
Inclination
49.9943°
RAAN
118.443°
Arg. of periapsis
244.3084°
True anomaly
115.78473°
Mean anomaly
115.5169°
Eccentric anomaly
115.65085°
Mean motion
3.66899 °/min
Orbital period
98.12 mins
BSTAR
0.00024054
Loading maneuver chart data...
Computing Atmospheric mass density...
Loading historical data...
Loading historical data...
Loading historical data...
Loading historical data...
Loading historical data...
Loading historical data...
Loading historical data...

Documentation

Showing up to 5 results
|